Location: ??????
(56.0120°N, 39.1740°E)
Time: 01:10:49
(UTC+00:00)

Aureole 3 - Pass Details

Date: 14 April 2026
Orbit: 373 x 1024 km, 82.5° (Epoch: 20 May)

Event Time Altitude Azimuth Distance (km) Brightness Sun altitude
Rises 17:43:46 0° 349° (N) 2,683 7.6 -10.3°
Reaches altitude 10° 17:45:46 10° 353° (N) 1,876 6.7 -10.5°
Maximum altitude 17:49:53 63° 75° (ENE) 731 3.7 -11.0°
Enters shadow 17:54:33 12° 156° (SSE) 2,142 5.8 -11.5°
